Location: Newark
(0.5300°S, 127.4800°E)
Time: 04:37:37
(UTC+00:00)

Vanguard 1 - Visible Passes

Search period start: 19 September 2019 00:00
Search period end: 29 September 2019 00:00
Orbit: 654 x 3829 km, 34.3° (Epoch: 16 September)

Date Brightness Start Highest point End Pass type
(mag) Time Alt. Az. Time Alt. Az. Time Alt. Az.
19 Sep 13.1 10:16:20 10° SSE 10:20:16 12° SSE 10:24:54 10° SE visible
19 Sep 12.7 12:31:49 10° SSW 12:39:14 36° S 12:39:14 36° S visible
19 Sep 14.0 15:32:45 16° NE 15:32:45 16° NE 15:35:14 10° NE visible
19 Sep 13.4 17:45:27 32° N 17:45:27 32° N 17:58:52 10° NNE visible
19 Sep 13.8 20:02:17 10° NW 20:12:12 15° NNW 20:20:23 10° NNE visible
20 Sep 13.0 10:35:07 10° S 10:42:12 17° SE 10:46:24 16° SE visible
20 Sep 12.7 12:52:26 10° SW 12:59:07 37° SSW 12:59:07 37° SSW visible
20 Sep 13.9 15:52:16 20° NE 15:52:16 20° NE 15:56:34 10° NE visible
20 Sep 13.5 18:04:57 28° NNW 18:04:57 28° NNW 18:19:50 10° NNE visible
20 Sep 13.8 20:27:55 10° NNW 20:35:43 13° N 20:42:15 10° NNE visible
21 Sep 12.8 10:54:53 10° SSW 11:03:49 25° SE 11:06:19 24° SE visible
21 Sep 12.9 13:13:15 10° SW 13:19:03 35° SW 13:19:03 35° SW visible
21 Sep 13.8 16:11:45 23° NNE 16:11:45 23° NNE 16:17:45 10° NE visible
21 Sep 13.6 18:24:26 23° NNW 18:26:19 23° NNW 18:40:56 10° NNE visible
21 Sep 13.8 20:52:04 10° NNW 20:59:13 13° N 21:05:08 10° NNE visible
22 Sep 12.5 11:15:00 10° SSW 11:25:11 33° SE 11:26:18 33° SE visible
22 Sep 13.0 13:34:17 10° SW 14:18:32 - NE 13:39:01 30° SW visible
22 Sep 13.8 16:31:13 25° NNE 16:31:13 25° NNE 16:38:52 10° NE visible
22 Sep 13.8 18:43:54 17° NW 18:49:47 19° NNW 19:02:21 10° NNE visible
23 Sep 12.3 11:35:20 10° SSW 11:46:20 45° SE 11:46:20 45° SE visible
23 Sep 13.3 13:55:33 10° WSW 14:38:00 - NE 13:59:04 24° WSW visible
23 Sep 13.7 16:50:41 25° N 16:50:41 25° N 17:00:00 10° NNE visible
23 Sep 13.9 19:03:22 12° NW 19:13:31 17° N 19:24:16 10° NNE visible
24 Sep 12.8 09:40:02 10° S 09:44:41 14° SE 09:50:33 10° ESE visible
24 Sep 12.0 11:55:52 10° SW 12:06:25 58° SSE 12:06:25 58° SSE visible
24 Sep 13.5 14:17:08 10° WSW 14:57:27 - NE 14:19:10 17° WSW visible
24 Sep 13.7 17:10:08 25° N 17:10:08 25° N 17:21:14 10° NNE visible
24 Sep 13.9 19:25:47 10° NW 19:37:21 16° N 19:46:54 10° NNE visible
25 Sep 12.6 09:59:10 10° S 10:06:05 21° SE 10:13:49 13° ESE visible
25 Sep 12.0 12:16:37 10° SW 12:26:34 68° S 12:26:34 68° S visible
25 Sep 13.8 14:39:06 10° WSW 15:16:54 11° NE 15:17:39 10° NE visible
25 Sep 13.8 17:29:35 23° N 17:29:35 23° N 17:42:43 10° NNE visible
25 Sep 13.8 19:49:37 10° NNW 20:01:05 16° N 20:10:13 10° NE visible
26 Sep 12.3 10:19:02 10° SSW 10:27:13 30° SE 10:34:01 21° E visible
26 Sep 12.1 12:37:34 10° SW 12:46:45 64° WSW 12:46:45 64° WSW visible
26 Sep 14.0 15:36:22 14° NNE 15:36:22 14° NNE 15:38:55 10° NE visible
26 Sep 13.8 17:49:04 20° NNW 17:50:29 20° NNW 18:04:38 10° NNE visible
26 Sep 13.8 20:12:18 10° NNW 20:24:33 18° N 20:33:49 10° NE visible
27 Sep 12.0 10:39:15 10° SSW 10:48:13 42° SE 10:54:16 31° E visible
27 Sep 12.4 12:58:48 10° WSW 13:07:01 52° W 13:07:01 52° W visible
27 Sep 14.0 15:55:52 17° NNE 15:55:52 17° NNE 16:00:15 10° NNE visible
27 Sep 13.9 18:08:33 17° NNW 18:14:27 18° N 18:27:11 10° NNE visible
27 Sep 13.6 20:34:13 10° NNW 20:47:42 22° NNE 20:57:14 10° ENE visible
28 Sep 11.7 10:59:42 10° SW 11:09:14 57° SE 11:14:34 42° E visible
28 Sep 12.7 13:20:20 10° WSW 13:27:19 39° W 13:27:19 39° W visible
28 Sep 14.0 16:15:23 18° NNE 16:15:23 18° NNE 16:21:45 10° NNE visible
28 Sep 13.9 18:28:05 13° NNW 18:38:30 18° N 18:50:24 10° NE visible
28 Sep 13.4 20:55:42 10° NNW 21:10:29 26° NNE 21:20:14 10° ENE visible
